When you browse on this site, cookies collect data to enhance your experience and personalize the content and advertising you see.
Visit our Privacy Policy to learn more. By continuing to use the site, you agree to this use of cookies and data.
  • In France
  • List of Countries
  • For 7 days
  • Water Temperature
  • Weather Map
  • Weather Widgets
  • user-avatar
    Login

    Hourly Weather Boston

    Today, 27 May, Wednesday

    Time Temperature Precipitation Wind Pressure Humidity
    00:00 +14°C° 0 mm 1 mps 776 mmHg 86%
    01:00 +14°C° 0 mm 1 mps 776 mmHg 86%
    02:00 +13°C° 0 mm 1 mps 776 mmHg 86%
    03:00 +12°C° 0 mm 1 mps 776 mmHg 86%
    04:00 +13°C° 0 mm 1 mps 776 mmHg 86%
    05:00 +13°C° 0 mm 1 mps 776 mmHg 85%
    06:00 +14°C° 0 mm 1 mps 776 mmHg 85%
    07:00 +15°C° 0 mm 1 mps 776 mmHg 80%
    08:00 +18°C° 0 mm 1 mps 777 mmHg 76%
    09:00 +19°C° 0 mm 1 mps 777 mmHg 72%
    10:00 +19°C° 0 mm 2 mps 777 mmHg 69%
    11:00 +19°C° 0 mm 2 mps 777 mmHg 66%
    12:00 +20°C° 0 mm 3 mps 776 mmHg 62%
    13:00 +20°C° 0 mm 3 mps 776 mmHg 65%
    14:00 +19°C° 0 mm 4 mps 776 mmHg 68%
    15:00 +17°C° 0 mm 5 mps 776 mmHg 71%
    16:00 +17°C° 0 mm 5 mps 776 mmHg 73%
    17:00 +17°C° 0 mm 4 mps 776 mmHg 74%
    18:00 +15°C° 0 mm 4 mps 776 mmHg 75%
    19:00 +13°C° 0 mm 3 mps 776 mmHg 78%
    20:00 +12°C° 0 mm 3 mps 777 mmHg 82%
    21:00 +10°C° 0 mm 2 mps 777 mmHg 85%
    22:00 +11°C° 0 mm 1 mps 777 mmHg 85%
    23:00 +10°C° 0 mm 1 mps 777 mmHg 85%

    Tomorrow, 28 May, Thursday

    Time Temperature Precipitation Wind Pressure Humidity
    00:00 +10°C° 0 mm 1 mps 777 mmHg 85%
    01:00 +10°C° 0 mm 1 mps 777 mmHg 84%
    02:00 +9°C° 0 mm 1 mps 777 mmHg 84%
    03:00 +9°C° 0 mm 1 mps 776 mmHg 84%
    04:00 +9°C° 0 mm 0 mps 776 mmHg 82%
    05:00 +10°C° 0 mm 0 mps 776 mmHg 81%
    06:00 +11°C° 0 mm 0 mps 776 mmHg 79%
    07:00 +14°C° 0 mm 1 mps 776 mmHg 74%
    08:00 +15°C° 0 mm 1 mps 776 mmHg 69%
    09:00 +18°C° 0 mm 1 mps 776 mmHg 64%
    10:00 +18°C° 0 mm 1 mps 776 mmHg 61%
    11:00 +19°C° 0 mm 1 mps 775 mmHg 59%
    12:00 +19°C° 0 mm 2 mps 775 mmHg 56%
    13:00 +19°C° 0 mm 2 mps 774 mmHg 57%
    14:00 +20°C° 0 mm 2 mps 774 mmHg 57%
    15:00 +20°C° 0 mm 3 mps 774 mmHg 58%
    16:00 +19°C° 0 mm 3 mps 773 mmHg 63%
    17:00 +18°C° 0 mm 3 mps 773 mmHg 68%
    18:00 +17°C° 0 mm 3 mps 773 mmHg 73%
    19:00 +16°C° 0 mm 3 mps 773 mmHg 77%
    20:00 +13°C° 0 mm 3 mps 773 mmHg 80%
    21:00 +12°C° 0 mm 3 mps 773 mmHg 83%
    22:00 +11°C° 0 mm 3 mps 773 mmHg 83%
    23:00 +10°C° 0 mm 3 mps 773 mmHg 83%

    Day after tomorrow, 29 May, Friday

    Time Temperature Precipitation Wind Pressure Humidity
    00:00 +10°C° 0 mm 3 mps 773 mmHg 82%
    01:00 +9°C° 0 mm 2 mps 772 mmHg 79%
    02:00 +9°C° 0 mm 2 mps 772 mmHg 76%
    03:00 +8°C° 0 mm 2 mps 772 mmHg 73%
    04:00 +9°C° 0 mm 2 mps 772 mmHg 72%
    05:00 +11°C° 0 mm 1 mps 772 mmHg 71%
    06:00 +12°C° 0 mm 1 mps 772 mmHg 70%
    07:00 +14°C° 0 mm 1 mps 772 mmHg 66%
    08:00 +15°C° 0 mm 2 mps 771 mmHg 61%
    09:00 +17°C° 0 mm 2 mps 771 mmHg 57%
    10:00 +18°C° 0 mm 2 mps 771 mmHg 56%
    11:00 +19°C° 0 mm 2 mps 771 mmHg 55%
    12:00 +20°C° 0 mm 3 mps 771 mmHg 54%
    13:00 +20°C° 0 mm 3 mps 770 mmHg 56%
    14:00 +20°C° 0 mm 3 mps 770 mmHg 58%
    15:00 +20°C° 0 mm 3 mps 770 mmHg 60%
    16:00 +20°C° 0 mm 3 mps 769 mmHg 64%
    17:00 +19°C° 0 mm 4 mps 769 mmHg 68%
    18:00 +18°C° 0 mm 4 mps 769 mmHg 73%
    19:00 +15°C° 0 mm 4 mps 769 mmHg 77%
    20:00 +13°C° 0 mm 3 mps 769 mmHg 81%
    21:00 +12°C° 0 mm 3 mps 769 mmHg 85%
    22:00 +11°C° 0 mm 3 mps 769 mmHg 85%
    23:00 +10°C° 0 mm 3 mps 769 mmHg 86%

    30 May, Saturday

    Time Temperature Precipitation Wind Pressure Humidity
    00:00 +9°C° 0 mm 2 mps 769 mmHg 86%
    01:00 +9°C° 0 mm 2 mps 769 mmHg 87%
    02:00 +8°C° 0 mm 2 mps 769 mmHg 88%
    03:00 +9°C° 0 mm 1 mps 769 mmHg 89%
    04:00 +10°C° 0 mm 1 mps 769 mmHg 86%
    05:00 +11°C° 0 mm 1 mps 769 mmHg 83%
    06:00 +13°C° 0 mm 1 mps 769 mmHg 80%
    07:00 +14°C° 0 mm 2 mps 769 mmHg 76%
    08:00 +16°C° 0 mm 2 mps 769 mmHg 71%
    09:00 +17°C° 0 mm 3 mps 769 mmHg 67%
    10:00 +18°C° 0 mm 3 mps 769 mmHg 65%
    11:00 +19°C° 0 mm 4 mps 769 mmHg 64%
    12:00 +19°C° 0 mm 4 mps 769 mmHg 62%
    13:00 +19°C° 0 mm 4 mps 769 mmHg 64%
    14:00 +19°C° 0 mm 4 mps 768 mmHg 66%
    15:00 +19°C° 0 mm 5 mps 768 mmHg 68%
    16:00 +17°C° 0 mm 5 mps 768 mmHg 71%
    17:00 +17°C° 0 mm 5 mps 768 mmHg 74%
    18:00 +16°C° 0 mm 5 mps 768 mmHg 76%
    19:00 +14°C° 0 mm 4 mps 768 mmHg 81%
    20:00 +13°C° 0 mm 4 mps 768 mmHg 86%
    21:00 +11°C° 0 mm 4 mps 768 mmHg 91%
    22:00 +10°C° 0 mm 3 mps 768 mmHg 92%
    23:00 +10°C° 0 mm 3 mps 768 mmHg 92%

    31 May, Sunday

    Time Temperature Precipitation Wind Pressure Humidity
    00:00 +9°C° 0 mm 3 mps 768 mmHg 93%
    01:00 +9°C° 0 mm 2 mps 768 mmHg 92%
    02:00 +9°C° 0 mm 2 mps 768 mmHg 92%
    03:00 +9°C° 0 mm 1 mps 768 mmHg 92%
    04:00 +9°C° 0 mm 2 mps 768 mmHg 90%
    05:00 +10°C° 0 mm 2 mps 768 mmHg 88%
    06:00 +12°C° 0 mm 2 mps 768 mmHg 86%
    07:00 +14°C° 0 mm 2 mps 768 mmHg 80%
    08:00 +14°C° 0 mm 3 mps 768 mmHg 74%
    09:00 +17°C° 0 mm 3 mps 768 mmHg 68%
    10:00 +17°C° 0 mm 3 mps 768 mmHg 66%
    11:00 +18°C° 0 mm 4 mps 768 mmHg 65%
    12:00 +18°C° 0 mm 4 mps 767 mmHg 63%
    13:00 +18°C° 0 mm 4 mps 767 mmHg 64%
    14:00 +18°C° 0 mm 4 mps 767 mmHg 65%
    15:00 +17°C° 0 mm 5 mps 767 mmHg 66%
    16:00 +18°C° 0 mm 4 mps 767 mmHg 70%
    17:00 +17°C° 0 mm 4 mps 766 mmHg 73%
    18:00 +15°C° 0 mm 4 mps 766 mmHg 76%
    19:00 +14°C° 0 mm 4 mps 766 mmHg 82%
    20:00 +12°C° 0 mm 3 mps 766 mmHg 87%
    21:00 +10°C° 0 mm 3 mps 766 mmHg 92%
    22:00 +10°C° 0 mm 3 mps 766 mmHg 92%
    23:00 +10°C° 0 mm 2 mps 766 mmHg 92%

    1 June, Monday

    Time Temperature Precipitation Wind Pressure Humidity
    00:00 +9°C° 0 mm 2 mps 766 mmHg 92%
    01:00 +10°C° 0 mm 1 mps 766 mmHg 91%
    02:00 +10°C° 0 mm 1 mps 766 mmHg 90%
    03:00 +9°C° 0 mm 1 mps 765 mmHg 90%
    04:00 +10°C° 0 mm 1 mps 765 mmHg 87%
    05:00 +12°C° 0 mm 1 mps 765 mmHg 84%
    06:00 +13°C° 0 mm 2 mps 765 mmHg 81%
    07:00 +14°C° 0 mm 2 mps 765 mmHg 77%
    08:00 +16°C° 0 mm 3 mps 765 mmHg 72%
    09:00 +17°C° 0 mm 3 mps 765 mmHg 68%
    10:00 +17°C° 0 mm 3 mps 765 mmHg 68%
    11:00 +18°C° 0 mm 3 mps 764 mmHg 68%
    12:00 +18°C° 0 mm 4 mps 764 mmHg 68%
    13:00 +18°C° 0 mm 3 mps 764 mmHg 69%
    14:00 +17°C° 0 mm 3 mps 763 mmHg 70%
    15:00 +17°C° 0 mm 3 mps 763 mmHg 71%
    16:00 +17°C° 0 mm 3 mps 763 mmHg 73%
    17:00 +16°C° 0 mm 2 mps 763 mmHg 74%
    18:00 +16°C° 0 mm 2 mps 763 mmHg 76%
    19:00 +15°C° 0 mm 2 mps 763 mmHg 81%
    20:00 +13°C° 0 mm 2 mps 763 mmHg 86%
    21:00 +12°C° 0 mm 2 mps 763 mmHg 91%
    22:00 +10°C° 0 mm 2 mps 763 mmHg 92%
    23:00 +11°C° 0 mm 1 mps 763 mmHg 93%
    Show more